MST,Max TemperatureF,Mean TemperatureF,Min TemperatureF,Max Dew PointF,MeanDew PointF,Min DewpointF,Max Humidity, Mean Humidity, Min Humidity, Max Sea Level PressureIn, Mean Sea Level PressureIn, Min Sea Level PressureIn, Max VisibilityMiles, Mean VisibilityMiles, Min VisibilityMiles, Max Wind SpeedMPH, Mean Wind SpeedMPH, Max Gust SpeedMPH,PrecipitationIn, CloudCover, Events, WindDirDegrees
2012-1-1,29,22,14,19,14,10,88,78,67,30.74,30.63,30.37,10,8,2,7,1,7,T,5,Snow,145
2012-1-2,37,23,8,24,16,6,100,77,54,30.67,30.46,30.23,10,10,10,14,3,15,0.00,0,,107
2012-1-3,41,32,22,21,20,17,75,58,41,30.48,30.35,30.18,10,10,10,15,5,21,0.00,2,,294
2012-1-4,46,31,15,24,18,12,91,66,41,30.55,30.45,30.33,10,10,10,12,2,13,0.00,1,,275
2012-1-5,48,32,16,24,19,13,84,60,36,30.28,30.13,30.02,10,10,10,24,7,45,0.00,3,,298
2012-1-6,32,23,14,17,11,7,80,58,36,30.31,30.20,30.13,10,10,10,16,3,23,T,2,,318
2012-1-7,29,19,9,14,10,6,84,67,50,30.43,30.33,30.16,10,10,9,18,4,24,0.00,2,,328
2012-1-8,36,26,15,25,19,10,88,76,64,30.46,30.38,30.20,10,10,9,9,3,12,0.00,6,,339
2012-1-9,47,29,11,25,18,8,96,67,37,30.48,30.35,30.16,10,10,9,8,2,10,0.00,0,,42
2012-1-10,40,27,13,28,17,2,81,59,37,30.43,30.09,29.92,10,8,0,26,10,37,0.02,6,Fog-Snow,325
2012-1-11,19,7,-5,5,-2,-8,87,71,54,30.68,30.60,30.33,10,10,6,17,3,23,0.00,1,,150
2012-1-12,24,10,-4,8,2,-7,87,69,50,30.61,30.49,30.18,10,10,10,7,1,,0.00,1,,316
2012-1-13,41,21,1,11,5,-1,88,54,20,30.46,30.31,30.09,10,10,10,13,3,18,0.00,1,,125
2012-1-14,47,31,15,15,11,5,80,50,19,30.13,29.91,29.60,10,10,10,23,6,33,0.00,1,,294
2012-1-15,39,26,13,18,11,7,88,58,27,29.90,29.76,29.58,10,5,1,16,7,29,T,8,Snow,332
2012-1-16,19,8,-4,10,3,-4,92,70,47,30.19,29.90,29.70,10,7,2,12,2,17,T,6,Snow,128
2012-1-17,22,10,-2,16,4,-8,79,60,41,30.19,29.92,29.60,10,8,2,28,9,39,T,6,Snow,191
2012-1-18,36,27,18,25,19,15,91,77,63,29.82,29.67,29.52,10,6,1,18,6,29,0.06,8,Snow,274
2012-1-19,41,38,34,31,27,25,76,68,59,29.63,29.54,29.46,10,10,10,20,8,29,0.00,8,,220
2012-1-20,41,33,24,29,24,19,88,66,44,29.84,29.70,29.50,10,10,10,17,5,23,0.00,6,,220
2012-1-21,40,34,27,32,25,14,89,69,49,29.64,29.39,29.22,10,9,1,28,9,33,0.01,6,Rain-Snow,271
2012-1-22,30,24,18,13,10,6,67,53,39,29.99,29.88,29.70,10,10,10,16,5,21,0.00,3,,241
2012-1-23,31,19,7,25,16,4,96,77,57,30.19,29.92,29.76,10,9,1,14,3,17,T,5,Snow,18
2012-1-24,33,16,-2,14,5,-6,88,59,30,30.40,30.23,30.04,10,10,10,17,3,20,0.00,0,,105
2012-1-25,42,35,28,32,24,16,89,67,44,30.19,30.04,29.94,10,9,2,25,10,38,T,7,Snow,273
2012-1-26,42,33,24,26,18,7,69,55,40,30.17,29.98,29.80,10,10,10,21,9,30,0.00,5,,286
2012-1-27,28,23,17,8,1,-5,54,39,24,30.49,30.38,30.17,10,10,10,25,10,33,0.00,1,,289
2012-1-28,37,26,15,25,7,-4,69,47,25,30.43,30.35,30.20,10,10,10,18,5,24,0.00,4,,266
2012-1-29,46,39,31,28,24,17,66,50,33,30.18,30.01,29.81,10,10,10,23,11,31,0.00,4,,241
2012-1-30,40,35,30,30,24,15,82,65,48,29.99,29.79,29.70,10,8,2,23,8,30,0.02,7,Snow,271
2012-1-31,38,28,18,20,17,14,74,57,40,30.19,30.07,29.99,10,10,10,18,5,29,0.00,3,,261